Weather History for PAWN - April, 2013

Change the Weather History Date:

Monday, April 1, 2013

  Actual Average Record
Temperature  
Mean Temperature 6 °F -  
Max Temperature 24 °F 15 °F 37 °F (2008)
Min Temperature -11 °F 2 °F -25 °F (2001)
Degree Days  
Heating Degree Days 58    
Moisture  
Dew Point -4 °F    
Average Humidity 71    
Maximum Humidity 92    
Minimum Humidity 58    
Precipitation  
Precipitation 0.00 in - - ()
Sea Level Pressure  
Sea Level Pressure 30.27 in    
Wind  
Wind Speed 1 mph (NNE)    
Max Wind Speed 12 mph    
Max Gust Speed -    
Visibility 10 miles    
Events      
Averages and records for this station are not official NWS values.
T = Trace of Precipitation, MM = Missing Value Source: NWS Daily Summary

Daily Weather History Graph

Daily Weather History Graph

Search for Another Location

Airport or City:

Trip Planner

Search our weather history database for the weather conditions in past years. The results will help you decide how hot, cold, wet, or windy it might be!

Date:

Astronomy

Apr. 01, 2013 Rise Set
Actual Time 7:59 AM AKDT 9:53 PM AKDT
Civil Twilight 7:01 AM AKDT 10:52 PM AKDT
Nautical Twilight 5:42 AM AKDT 12:13 AM AKDT
Astronomical Twilight 3:28 AM AKDT 2:22 AM AKDT
Moon 5:48 AM AKDT (4/1) 9:23 AM AKDT (4/1)
Length of Visible Light 15h 50m
Length of Day
13h 53m
Waning Gibbous, 65% of the Moon is Illuminated
Apr 1
Waning Gibbous
Apr 2
Last Quarter
Apr 10
New
Apr 18
First Quarter
Apr 25
Full

Hourly Weather History & Observations

Time (AKDT) Temp. Windchill Dew Point Humidity Pressure Visibility Wind Dir Wind Speed Gust Speed Precip Events Conditions
12:16 AM -2.2 °F - -7.6 °F 78% 30.30 in 10.0 mi Calm Calm - N/A   Clear
12:36 AM -5.8 °F - -11.2 °F 77% 30.30 in 10.0 mi Calm Calm - N/A   Clear
12:56 AM -5.8 °F - -7.6 °F 92% 30.29 in 10.0 mi Calm Calm - N/A   Clear
1:16 AM -7.6 °F - -11.2 °F 84% 30.30 in 10.0 mi Calm Calm - N/A   Clear
1:56 AM -7.6 °F - -9.4 °F 92% 30.30 in 8.0 mi Calm Calm - N/A   Clear
2:16 AM -9.4 °F - -18.4 °F 65% 30.30 in 10.0 mi Calm Calm - N/A   Clear
2:36 AM -9.4 °F - -16.6 °F 71% 30.30 in 10.0 mi Calm Calm - N/A   Clear
2:56 AM -7.6 °F -16.5 °F -13.0 °F 77% 30.30 in 10.0 mi North 3.5 mph - N/A   Clear
3:16 AM -7.6 °F -18.8 °F -14.8 °F 71% 30.30 in 10.0 mi NNE 4.6 mph - N/A   Clear
3:56 AM -9.4 °F -18.6 °F -14.8 °F 77% 30.30 in 10.0 mi NNE 3.5 mph - N/A   Clear
4:36 AM -9.4 °F -18.6 °F -16.6 °F 71% 30.30 in 10.0 mi North 3.5 mph - N/A   Clear
4:56 AM -9.4 °F -22.7 °F -14.8 °F 77% 30.29 in 10.0 mi North 5.8 mph - N/A   Clear
5:16 AM -11.2 °F - -18.4 °F 70% 30.29 in 10.0 mi Calm Calm - N/A   Clear
5:36 AM -7.6 °F - -14.8 °F 71% 30.29 in 10.0 mi Calm Calm - N/A   Clear
6:16 AM -11.2 °F - -18.4 °F 70% 30.29 in 10.0 mi Calm Calm - N/A   Clear
6:36 AM -9.4 °F - -11.2 °F 92% 30.29 in 10.0 mi Calm Calm - N/A   Clear
6:56 AM -7.6 °F - -16.6 °F 65% 30.29 in 10.0 mi Calm Calm - N/A   Clear
7:16 AM -11.2 °F - -20.2 °F 64% 30.29 in 10.0 mi Calm Calm - N/A   Clear
7:36 AM -11.2 °F - -18.4 °F 70% 30.29 in 10.0 mi Calm Calm - N/A   Clear
7:56 AM -9.4 °F - -13.0 °F 84% 30.28 in 10.0 mi Calm Calm - N/A   Clear
8:16 AM -7.6 °F - -14.8 °F 71% 30.28 in 10.0 mi Calm Calm - N/A   Clear
8:36 AM -9.4 °F -18.6 °F -18.4 °F 65% 30.28 in 10.0 mi NNW 3.5 mph - N/A   Clear
8:56 AM -9.4 °F -18.6 °F -18.4 °F 65% 30.28 in 10.0 mi NNW 3.5 mph - N/A   Clear
9:16 AM -7.6 °F - -16.6 °F 65% 30.28 in 10.0 mi Calm Calm - N/A   Clear
9:36 AM -7.6 °F - -16.6 °F 65% 30.29 in 5.0 mi Calm Calm - N/A   Clear
9:56 AM -7.6 °F - -13.0 °F 77% 30.29 in 10.0 mi Calm Calm - N/A   Clear
10:16 AM -5.8 °F -14.5 °F -14.8 °F 65% 30.28 in 10.0 mi NNW 3.5 mph - N/A   Clear
10:36 AM -7.6 °F -18.8 °F -14.8 °F 71% 30.29 in 10.0 mi NNW 4.6 mph - N/A   Clear
10:56 AM -5.8 °F - -9.4 °F 84% 30.29 in 10.0 mi Calm Calm - N/A   Clear
11:16 AM -2.2 °F - -11.2 °F 66% 30.29 in 10.0 mi Calm Calm - N/A   Clear
11:36 AM 1.4 °F -6.2 °F -5.8 °F 72% 30.28 in 10.0 mi NE 3.5 mph - N/A   Clear
11:56 AM -0.4 °F - -7.6 °F 72% 30.28 in 10.0 mi Calm Calm - N/A   Clear
12:16 PM 3.2 °F - - N/A% 30.28 in 10.0 mi Calm Calm - N/A   Clear
12:36 PM 1.4 °F - -5.8 °F 72% 30.28 in 10.0 mi Calm Calm - N/A   Clear
12:56 PM 3.2 °F - -2.2 °F 78% 30.28 in 9.0 mi Calm Calm - N/A   Clear
1:16 PM 3.2 °F - -0.4 °F 85% 30.28 in 9.0 mi Calm Calm - N/A   Clear
1:36 PM 6.8 °F - 1.4 °F 79% 30.27 in 10.0 mi Calm Calm - N/A   Clear
1:56 PM 6.8 °F - -0.4 °F 72% 30.27 in 10.0 mi Calm Calm - N/A   Clear
2:16 PM 8.6 °F - 1.4 °F 73% 30.27 in 10.0 mi Calm Calm - N/A   Clear
2:36 PM 8.6 °F - 1.4 °F 73% 30.27 in 10.0 mi Calm Calm - N/A   Clear
2:56 PM 10.4 °F - 1.4 °F 67% 30.26 in 10.0 mi Calm Calm - N/A   Clear
3:16 PM 10.4 °F - 1.4 °F 67% 30.26 in 10.0 mi Calm Calm - N/A   Clear
3:36 PM 12.2 °F - 3.2 °F 67% 30.25 in 10.0 mi Calm Calm - N/A   Clear
3:56 PM 12.2 °F - 3.2 °F 67% 30.25 in 10.0 mi Calm Calm - N/A   Clear
4:16 PM 15.8 °F - 5.0 °F 62% 30.25 in 10.0 mi Calm Calm - N/A   Clear
4:36 PM 15.8 °F - 5.0 °F 62% 30.25 in 10.0 mi Calm Calm - N/A   Clear
4:56 PM 15.8 °F - 3.2 °F 58% 30.25 in 10.0 mi Calm Calm - N/A   Clear
5:16 PM 15.8 °F - 5.0 °F 62% 30.25 in 10.0 mi Calm Calm - N/A   Clear
5:36 PM 15.8 °F - 3.2 °F 58% 30.25 in 10.0 mi Calm Calm - N/A   Clear
5:56 PM 15.8 °F - 3.2 °F 58% 30.25 in 10.0 mi Calm Calm - N/A   Clear
6:16 PM 15.8 °F - 6.8 °F 68% 30.24 in 10.0 mi Calm Calm - N/A   Clear
6:36 PM 21.2 °F 10.9 °F 8.6 °F 58% 30.24 in 10.0 mi NE 9.2 mph - N/A   Clear
6:56 PM 24.8 °F 14.6 °F 12.2 °F 59% 30.24 in 10.0 mi NE 10.4 mph - N/A   Clear
7:16 PM 23.0 °F 11.7 °F 12.2 °F 63% 30.23 in 10.0 mi NE 11.5 mph - N/A   Clear
7:36 PM 21.2 °F 10.1 °F 12.2 °F 68% 30.23 in 10.0 mi NE 10.4 mph - N/A   Clear
7:56 PM 21.2 °F 11.7 °F 10.4 °F 63% 30.23 in 10.0 mi ENE 8.1 mph - N/A   Clear
8:16 PM 21.2 °F 11.7 °F 10.4 °F 63% 30.23 in 10.0 mi ENE 8.1 mph - N/A   Clear
8:36 PM 19.4 °F 11.5 °F 8.6 °F 63% 30.23 in 10.0 mi ENE 5.8 mph - N/A   Clear
8:56 PM 15.8 °F 10.2 °F 5.0 °F 62% 30.23 in 10.0 mi East 3.5 mph - N/A   Clear
9:16 PM 14.0 °F - 3.2 °F 62% 30.24 in 10.0 mi Calm Calm - N/A   Clear
9:36 PM 12.2 °F - 3.2 °F 67% 30.24 in 10.0 mi Calm Calm - N/A   Clear
9:56 PM 10.4 °F - 3.2 °F 73% 30.24 in 10.0 mi Calm Calm - N/A   Clear
10:16 PM 10.4 °F 2.2 °F 3.2 °F 73% 30.24 in 10.0 mi NNE 4.6 mph - N/A   Clear
10:36 PM 12.2 °F 6.1 °F 5.0 °F 73% 30.24 in 10.0 mi NNE 3.5 mph - N/A   Clear
10:56 PM 8.6 °F 0.1 °F 1.4 °F 73% 30.24 in 10.0 mi NNE 4.6 mph - N/A   Clear
11:16 PM 14.0 °F 2.9 °F 8.6 °F 79% 30.24 in 10.0 mi NNE 8.1 mph - N/A   Clear
11:36 PM 12.2 °F 4.3 °F 6.8 °F 79% 30.24 in 10.0 mi NE 4.6 mph - N/A   Clear
11:56 PM 12.2 °F - 6.8 °F 79% 30.24 in 10.0 mi Calm Calm - N/A   Clear